STARLINK-1835, 46782

Orbit data source: Space-Track

STARLINK-1835, 46782 is a payload satellite owned by SpaceX/Seattle (US) in LEO that was launched on Sat, 24 Oct 2020 UTC via an FALCON 9 launch vehicle from the Air Force Eastern Test Range (AFETR). Payload-class satellites include a variety of spacecraft equipped with specific instruments for various scientific and technological missions. These include communications satellites like Starlink; space stations such as the ISS; scientific satellites like the Hubble; Earth observation satellites from companies like Planet Labs, Umbra, and HawkEye 360; GPS; miniature CubeSats for education and research; and military/defense satellites.

Loading next visibility...
Identifier
46782, 2020-074AV
Orbit
LEO
Country
Flag of USUS
Related business
Manufacturer
SpaceX/Seattle
Mission
Operational Commercial Communications
Bus & Motor
STARLINK, Unknown motor
Mass
260 kg wet, ~248 kg dry
Launch date (UTC)
2020-10-24 (5 years ago)
Launch vehicle
FALCON 9
Launch site
Air Force Eastern Test Range (AFETR)
Object type
Payload
Rocket body
Debris
Shape & HBR
Box + 1 Pan, 10.1 m
Radar Cross Section
13.562 m², Large (>1 m²)

Expand to show TLE details & history
Last TLE update: 18 hours ago

TLE from 18 hours ago
0 STARLINK-1835
1 46782U 20074AV  25286.59681209 -.00000443  00000-0 -10818-4 0  9998
2 46782  53.0544 251.9423 0001495  96.4195 263.6964 15.06400924274649
Epoch: 2025-10-13T14:19Z
TLE epoch observation values (Epoch: 2025-10-13T14:19:24.564Z)
Latitude
-0.00005°
Longitude
14.6926°
Altitude
548.202 km
Speed
7.589 km/s
True Right ascension
16h 47m 46s
True Declination
0° 00' 00"
Sunlit
Object was in daylight at epoch
Visualization orbit readout
Latitude
Unknown
Longitude
Unknown
Altitude
Unknown
Speed
Unknown
Apparent Right ascension
Unknown
Apparent Declination
Unknown
Sunlit
N/A
Visualization observer readout
Local Sidereal Time
02:42:09
Azimuth
Unknown
Elevation
Unknown
Doppler factor
Unknown
Orbital elements
Apogee altitude
548.515 km
Perigee altitude
546.444 km
Semi-major axis
6,925.616 km
Eccentricity
0.00015
Inclination
53.0544°
RAAN
251.9423°
Arg. of periapsis
96.4195°
True anomaly
263.67937°
Mean anomaly
263.6964°
Eccentric anomaly
263.68789°
Mean motion
3.76578 °/min
Orbital period
95.6 mins
BSTAR
-0.000010818
Loading maneuver chart data...
Computing Atmospheric mass density...

Documentation

Showing up to 5 results
|